| time (UTC) | temp F | wind direction | speed MPH | gust MPH | rain 1hr in | rain 24hr in | rain mn in | humidity % | barometer mb |
| 20260510230705 | 59 | 287 | 6.0 | 9.0 | 0.00 | 0.00 | 0.00 | 62 | 1013.6 |
| 20260510230203 | 59 | 304 | 6.0 | 10.0 | 0.00 | 0.00 | 0.00 | 62 | 1013.4 |
| 20260510225704 | 59 | 293 | 5.0 | 10.0 | 0.00 | 0.00 | 0.00 | 62 | 1013.4 |
| 20260510225204 | 60 | 287 | 3.0 | 6.0 | 0.00 | 0.00 | 0.00 | 62 | 1013.2 |
| 20260510224705 | 60 | 287 | 4.0 | 10.0 | 0.00 | 0.00 | 0.00 | 61 | 1013.1 |
| 20260510224205 | 60 | 291 | 6.0 | 12.0 | 0.00 | 0.00 | 0.00 | 63 | 1013.1 |
| 20260510223705 | 60 | 306 | 3.0 | 12.0 | 0.00 | 0.00 | 0.00 | 59 | 1013.0 |
| 20260510222705 | 61 | 291 | 3.0 | 9.0 | 0.00 | 0.00 | 0.00 | 62 | 1013.0 |
| 20260510222205 | 61 | 295 | 7.0 | 12.0 | 0.00 | 0.00 | 0.00 | 62 | 1012.9 |
| 20260510221705 | 61 | 299 | 3.0 | 9.0 | 0.00 | 0.00 | 0.00 | 62 | 1012.9 |
| 20260510220704 | 62 | 307 | 3.0 | 7.0 | 0.00 | 0.00 | 0.00 | 60 | 1012.8 |
| 20260510220205 | 63 | 305 | 3.0 | 7.0 | 0.00 | 0.00 | 0.00 | 60 | 1012.8 |
| 20260510215705 | 64 | 293 | 5.0 | 9.0 | 0.00 | 0.00 | 0.00 | 60 | 1012.7 |
| 20260510214705 | 64 | 295 | 6.0 | 12.0 | 0.00 | 0.00 | 0.00 | 60 | 1012.6 |
| 20260510214204 | 64 | 351 | 2.0 | 3.0 | 0.00 | 0.00 | 0.00 | 60 | 1012.7 |
| 20260510213704 | 64 | 312 | 4.0 | 10.0 | 0.00 | 0.00 | 0.00 | 60 | 1012.5 |
| 20260510213205 | 64 | 358 | 3.0 | 8.0 | 0.00 | 0.00 | 0.00 | 58 | 1012.5 |
| 20260510211705 | 65 | 307 | 2.0 | 8.0 | 0.00 | 0.00 | 0.00 | 60 | 1012.3 |
| 20260510211205 | 64 | 288 | 5.0 | 9.0 | 0.00 | 0.00 | 0.00 | 61 | 1012.3 |
| 20260510210205 | 64 | 285 | 5.0 | 10.0 | 0.00 | 0.00 | 0.00 | 61 | 1012.2 |
| 20260510205704 | 65 | 299 | 5.0 | 12.0 | 0.00 | 0.00 | 0.00 | 60 | 1012.1 |
| 20260510205206 | 66 | 318 | 6.0 | 9.0 | 0.00 | 0.00 | 0.00 | 60 | 1012.1 |
| 20260510204705 | 66 | 314 | 4.0 | 10.0 | 0.00 | 0.00 | 0.00 | 61 | 1011.9 |
| 20260510204205 | 66 | 313 | 3.0 | 8.0 | 0.00 | 0.00 | 0.00 | 62 | 1011.9 |
| 20260510202705 | 65 | 294 | 7.0 | 12.0 | 0.00 | 0.00 | 0.00 | 63 | 1012.2 |
| 20260510202205 | 65 | 299 | 3.0 | 3.0 | 0.00 | 0.00 | 0.00 | 64 | 1012.2 |
| 20260510201705 | 65 | 320 | 2.0 | 7.0 | 0.00 | 0.00 | 0.00 | 61 | 1012.3 |
| 20260510201205 | 66 | 305 | 7.0 | 12.0 | 0.00 | 0.00 | 0.00 | 62 | 1012.2 |
| 20260510195705 | 67 | 348 | 1.0 | 3.0 | 0.00 | 0.00 | 0.00 | 58 | 1012.3 |
| 20260510195205 | 67 | 286 | 5.0 | 8.0 | 0.00 | 0.00 | 0.00 | 61 | 1012.3 |
| 20260510194705 | 67 | 315 | 3.0 | 5.0 | 0.00 | 0.00 | 0.00 | 61 | 1012.3 |
| 20260510194205 | 67 | 287 | 3.0 | 8.0 | 0.00 | 0.00 | 0.00 | 62 | 1012.3 |
| 20260510193705 | 67 | 319 | 4.0 | 10.0 | 0.00 | 0.00 | 0.00 | 60 | 1012.3 |
| 20260510193205 | 67 | 287 | 6.0 | 12.0 | 0.00 | 0.00 | 0.00 | 62 | 1012.3 |
| 20260510192705 | 67 | 287 | 5.0 | 10.0 | 0.00 | 0.00 | 0.00 | 61 | 1012.3 |
| 20260510192204 | 66 | 282 | 5.0 | 14.0 | 0.00 | 0.00 | 0.00 | 61 | 1012.3 |
| 20260510191204 | 66 | 285 | 5.0 | 9.0 | 0.00 | 0.01 | 0.00 | 60 | 1012.5 |
| 20260510190705 | 66 | 279 | 5.0 | 12.0 | 0.00 | 0.01 | 0.00 | 58 | 1012.4 |
| 20260510190204 | 67 | 309 | 2.0 | 7.0 | 0.00 | 0.02 | 0.00 | 61 | 1012.3 |
| 20260510185705 | 66 | 308 | 2.0 | 14.0 | 0.00 | 0.03 | 0.00 | 60 | 1012.5 |
| 20260510184705 | 67 | 280 | 2.0 | 5.0 | 0.00 | 0.04 | 0.00 | 62 | 1012.5 |
| 20260510184205 | 67 | 286 | 6.0 | 10.0 | 0.00 | 0.04 | 0.00 | 64 | 1012.5 |
| 20260510183705 | 67 | 291 | 9.0 | 12.0 | 0.00 | 0.05 | 0.00 | 62 | 1012.5 |
| 20260510183204 | 66 | 293 | 6.0 | 14.0 | 0.00 | 0.05 | 0.00 | 61 | 1012.5 |
| 20260510182705 | 66 | 285 | 6.0 | 13.0 | 0.00 | 0.06 | 0.00 | 63 | 1012.5 |
| 20260510181704 | 65 | 5 | 4.0 | 10.0 | 0.00 | 0.07 | 0.00 | 66 | 1012.6 |
| 20260510180704 | 65 | 287 | 6.0 | 12.0 | 0.00 | 0.08 | 0.00 | 66 | 1012.7 |
| 20260510180204 | 65 | 357 | 2.0 | 6.0 | 0.00 | 0.08 | 0.00 | 65 | 1012.7 |
| 20260510175704 | 65 | 292 | 3.0 | 8.0 | 0.00 | 0.08 | 0.00 | 69 | 1012.7 |
| 20260510174705 | 63 | 295 | 3.0 | 9.0 | 0.00 | 0.09 | 0.00 | 75 | 1012.8 |
| 20260510173204 | 63 | 297 | 2.0 | 7.0 | 0.00 | 0.10 | 0.00 | 74 | 1012.5 |
| 20260510172706 | 64 | 286 | 3.0 | 9.0 | 0.00 | 0.10 | 0.00 | 72 | 1012.6 |
| 20260510172205 | 64 | 309 | 4.0 | 7.0 | 0.00 | 0.11 | 0.00 | 74 | 1012.5 |
| 20260510171705 | 64 | 319 | 3.0 | 7.0 | 0.00 | 0.11 | 0.00 | 76 | 1012.5 |
| 20260510171205 | 63 | 308 | 2.0 | 3.0 | 0.00 | 0.11 | 0.00 | 73 | 1012.5 |
| 20260510170705 | 64 | 355 | 3.0 | 10.0 | 0.00 | 0.11 | 0.00 | 76 | 1012.6 |
| 20260510170205 | 64 | 288 | 5.0 | 9.0 | 0.00 | 0.12 | 0.00 | 77 | 1012.6 |
| 20260510165705 | 64 | 286 | 5.0 | 9.0 | 0.00 | 0.12 | 0.00 | 76 | 1012.6 |
| 20260510164704 | 62 | 286 | 4.0 | 9.0 | 0.00 | 0.12 | 0.00 | 80 | 1012.7 |
| 20260510163704 | 61 | 331 | 3.0 | 12.0 | 0.00 | 0.13 | 0.00 | 82 | 1012.8 |
| 20260510163205 | 60 | 297 | 2.0 | 8.0 | 0.00 | 0.13 | 0.00 | 82 | 1012.8 |
| 20260510162706 | 60 | 296 | 5.0 | 8.0 | 0.00 | 0.13 | 0.00 | 84 | 1012.8 |
| 20260510162204 | 60 | 305 | 5.0 | 9.0 | 0.00 | 0.13 | 0.00 | 82 | 1012.7 |
| 20260510161704 | 60 | 319 | 3.0 | 12.0 | 0.00 | 0.14 | 0.00 | 85 | 1012.6 |
| 20260510161205 | 59 | 275 | 6.0 | 12.0 | 0.00 | 0.14 | 0.00 | 84 | 1012.7 |
| 20260510160705 | 59 | 291 | 7.0 | 16.0 | 0.00 | 0.15 | 0.00 | 84 | 1012.7 |
| 20260510155704 | 59 | 322 | 3.0 | 7.0 | 0.00 | 0.16 | 0.00 | 86 | 1012.7 |
| 20260510155205 | 58 | 312 | 3.0 | 8.0 | 0.00 | 0.16 | 0.00 | 88 | 1012.6 |
| 20260510154705 | 57 | 294 | 5.0 | 10.0 | 0.00 | 0.16 | 0.00 | 89 | 1012.7 |
| 20260510154204 | 56 | 301 | 6.0 | 12.0 | 0.00 | 0.17 | 0.00 | 89 | 1012.6 |
| 20260510153704 | 57 | 303 | 6.0 | 14.0 | 0.00 | 0.17 | 0.00 | 87 | 1012.7 |
| 20260510153205 | 59 | 309 | 8.0 | 18.0 | 0.00 | 0.18 | 0.00 | 86 | 1012.7 |
| 20260510152704 | 60 | 267 | 4.0 | 7.0 | 0.00 | 0.18 | 0.00 | 87 | 1012.4 |
| 20260510152205 | 60 | 288 | 3.0 | 8.0 | 0.00 | 0.18 | 0.00 | 89 | 1012.1 |
| 20260510151705 | 60 | 275 | 3.0 | 9.0 | 0.00 | 0.19 | 0.00 | 88 | 1012.1 |
| 20260510151205 | 60 | 277 | 2.0 | 3.0 | 0.00 | 0.19 | 0.00 | 88 | 1012.0 |
| 20260510150205 | 60 | 274 | 1.0 | 3.0 | 0.00 | 0.20 | 0.00 | 87 | 1011.8 |
| 20260510145705 | 59 | 282 | 2.0 | 3.0 | 0.00 | 0.21 | 0.00 | 89 | 1011.8 |
| 20260510144705 | 59 | 237 | 2.0 | 5.0 | 0.00 | 0.22 | 0.00 | 87 | 1011.7 |
| 20260510144204 | 59 | 248 | 3.0 | 3.0 | 0.00 | 0.23 | 0.00 | 87 | 1011.6 |
| 20260510143705 | 59 | 277 | 1.0 | 3.0 | 0.00 | 0.24 | 0.00 | 87 | 1011.5 |
| 20260510143205 | 59 | 278 | 2.0 | 3.0 | 0.00 | 0.25 | 0.00 | 88 | 1011.5 |
| 20260510142705 | 59 | 239 | 2.0 | 3.0 | 0.00 | 0.26 | 0.00 | 89 | 1011.4 |
| 20260510141705 | 59 | 219 | 3.0 | 6.0 | 0.00 | 0.28 | 0.00 | 88 | 1011.5 |
| 20260510141205 | 59 | 230 | 4.0 | 8.0 | 0.00 | 0.29 | 0.00 | 89 | 1011.5 |
| 20260510140705 | 60 | 262 | 2.0 | 3.0 | 0.00 | 0.29 | 0.00 | 88 | 1011.4 |
| 20260510135704 | 60 | 247 | 5.0 | 8.0 | 0.00 | 0.31 | 0.00 | 86 | 1011.4 |
| 20260510135204 | 61 | 255 | 3.0 | 7.0 | 0.00 | 0.32 | 0.00 | 86 | 1011.4 |
| 20260510134704 | 61 | 234 | 4.0 | 8.0 | 0.00 | 0.33 | 0.00 | 86 | 1011.3 |
| 20260510134204 | 61 | 221 | 5.0 | 12.0 | 0.00 | 0.34 | 0.00 | 87 | 1011.2 |
| 20260510133704 | 61 | 211 | 3.0 | 8.0 | 0.00 | 0.35 | 0.00 | 87 | 1011.1 |
| 20260510132204 | 59 | 191 | 6.0 | 10.0 | 0.00 | 0.37 | 0.00 | 90 | 1011.0 |
| 20260510131705 | 58 | 222 | 3.0 | 12.0 | 0.00 | 0.37 | 0.00 | 91 | 1011.0 |
| 20260510125704 | 57 | 195 | 5.0 | 10.0 | 0.00 | 0.38 | 0.00 | 92 | 1011.1 |
| 20260510125205 | 57 | 210 | 5.0 | 10.0 | 0.00 | 0.38 | 0.00 | 92 | 1011.1 |
| 20260510124705 | 57 | 215 | 3.0 | 8.0 | 0.00 | 0.39 | 0.00 | 92 | 1011.2 |
| 20260510123704 | 56 | 207 | 3.0 | 8.0 | 0.00 | 0.40 | 0.00 | 92 | 1011.1 |
| 20260510123205 | 57 | 218 | 2.0 | 8.0 | 0.00 | 0.41 | 0.00 | 92 | 1011.0 |
| 20260510122705 | 58 | 246 | 5.0 | 10.0 | 0.00 | 0.42 | 0.00 | 92 | 1011.0 |
| 20260510122204 | 57 | 241 | 5.0 | 10.0 | 0.00 | 0.42 | 0.00 | 94 | 1010.9 |
| 20260510121704 | 56 | 206 | 6.0 | 10.0 | 0.00 | 0.43 | 0.00 | 95 | 1010.9 |
| 20260510121204 | 55 | 196 | 4.0 | 8.0 | 0.00 | 0.43 | 0.00 | 95 | 1011.0 |
| 20260510120704 | 55 | 192 | 6.0 | 12.0 | 0.00 | 0.44 | 0.00 | 95 | 1011.0 |
| 20260510120204 | 55 | 196 | 5.0 | 9.0 | 0.00 | 0.44 | 0.00 | 95 | 1011.0 |
| 20260510115204 | 54 | 177 | 4.0 | 8.0 | 0.00 | 0.44 | 0.00 | 96 | 1010.8 |
| 20260510114704 | 54 | 173 | 6.0 | 12.0 | 0.00 | 0.44 | 0.00 | 96 | 1010.8 |
| 20260510114204 | 54 | 206 | 2.0 | 8.0 | 0.00 | 0.44 | 0.00 | 96 | 1010.8 |
| 20260510113705 | 53 | 193 | 6.0 | 14.0 | 0.00 | 0.44 | 0.00 | 96 | 1010.9 |
| 20260510112704 | 53 | 207 | 5.0 | 12.0 | 0.00 | 0.44 | 0.00 | 96 | 1010.8 |
| 20260510112205 | 53 | 197 | 5.0 | 10.0 | 0.00 | 0.44 | 0.00 | 96 | 1010.9 |
| 20260510111204 | 53 | 192 | 3.0 | 10.0 | 0.00 | 0.44 | 0.00 | 96 | 1010.9 |
| 20260510110704 | 53 | 207 | 5.0 | 13.0 | 0.00 | 0.44 | 0.00 | 96 | 1010.8 |
| 20260510110204 | 53 | 209 | 5.0 | 10.0 | 0.00 | 0.44 | 0.00 | 96 | 1010.8 |
| 20260510105704 | 52 | 223 | 3.0 | 10.0 | 0.00 | 0.44 | 0.00 | 96 | 1010.8 |
| 20260510105205 | 52 | 240 | 3.0 | 8.0 | 0.00 | 0.44 | 0.00 | 96 | 1010.7 |
| 20260510104705 | 52 | 198 | 5.0 | 7.0 | 0.00 | 0.44 | 0.00 | 96 | 1010.6 |
| 20260510104204 | 52 | 212 | 4.0 | 8.0 | 0.00 | 0.44 | 0.00 | 96 | 1010.5 |
| 20260510103704 | 52 | 219 | 3.0 | 3.0 | 0.00 | 0.44 | 0.00 | 95 | 1010.4 |
| 20260510103205 | 52 | 166 | 5.0 | 12.0 | 0.00 | 0.44 | 0.00 | 95 | 1010.2 |
| 20260510102704 | 52 | 192 | 4.0 | 12.0 | 0.00 | 0.44 | 0.00 | 95 | 1010.2 |
| 20260510102204 | 52 | 174 | 4.0 | 13.0 | 0.00 | 0.44 | 0.00 | 95 | 1010.1 |
| 20260510101704 | 52 | 175 | 3.0 | 9.0 | 0.00 | 0.44 | 0.00 | 95 | 1010.0 |
| 20260510100704 | 52 | 183 | 4.0 | 8.0 | 0.00 | 0.44 | 0.00 | 94 | 1009.8 |
| 20260510100204 | 51 | 211 | 4.0 | 9.0 | 0.00 | 0.44 | 0.00 | 94 | 1009.8 |
| 20260510095704 | 51 | 180 | 3.0 | 10.0 | 0.00 | 0.44 | 0.00 | 94 | 1009.8 |
| 20260510095204 | 51 | 232 | 2.0 | 10.0 | 0.00 | 0.44 | 0.00 | 93 | 1009.8 |
| 20260510094204 | 51 | 194 | 2.0 | 7.0 | 0.00 | 0.44 | 0.00 | 93 | 1009.7 |
| 20260510093704 | 51 | 168 | 1.0 | 5.0 | 0.00 | 0.44 | 0.00 | 93 | 1009.6 |
| 20260510093205 | 50 | 180 | 2.0 | 6.0 | 0.00 | 0.44 | 0.00 | 94 | 1009.5 |
| 20260510092704 | 50 | 185 | 3.0 | 8.0 | 0.00 | 0.44 | 0.00 | 94 | 1009.4 |
| 20260510092204 | 50 | 164 | 2.0 | 3.0 | 0.00 | 0.44 | 0.00 | 94 | 1009.3 |
| 20260510091704 | 50 | 152 | 2.0 | 3.0 | 0.00 | 0.44 | 0.00 | 94 | 1009.3 |
| 20260510091204 | 50 | 158 | 2.0 | 5.0 | 0.00 | 0.44 | 0.00 | 95 | 1009.3 |
| 20260510090704 | 50 | 142 | 3.0 | 7.0 | 0.00 | 0.44 | 0.00 | 95 | 1009.3 |
| 20260510090205 | 51 | 140 | 3.0 | 6.0 | 0.00 | 0.44 | 0.00 | 95 | 1009.3 |
| 20260510085704 | 51 | 144 | 3.0 | 9.0 | 0.00 | 0.44 | 0.00 | 95 | 1009.4 |
| 20260510085206 | 51 | 184 | 3.0 | 5.0 | 0.00 | 0.44 | 0.00 | 95 | 1009.4 |
| 20260510084704 | 51 | 211 | 2.0 | 10.0 | 0.00 | 0.44 | 0.00 | 95 | 1009.3 |
| 20260510084204 | 51 | 171 | 5.0 | 9.0 | 0.00 | 0.44 | 0.00 | 95 | 1009.3 |
| 20260510083705 | 51 | 202 | 3.0 | 9.0 | 0.00 | 0.44 | 0.00 | 95 | 1009.5 |
| 20260510083204 | 51 | 216 | 3.0 | 8.0 | 0.00 | 0.44 | 0.00 | 95 | 1009.3 |
| 20260510082704 | 52 | 216 | 5.0 | 12.0 | 0.00 | 0.44 | 0.00 | 95 | 1009.2 |
| 20260510082204 | 52 | 200 | 4.0 | 9.0 | 0.00 | 0.44 | 0.00 | 95 | 1009.3 |
| 20260510081205 | 52 | 216 | 3.0 | 10.0 | 0.00 | 0.44 | 0.00 | 95 | 1009.1 |
| 20260510080705 | 52 | 216 | 6.0 | 13.0 | 0.00 | 0.44 | 0.00 | 95 | 1009.2 |
| 20260510080204 | 52 | 211 | 6.0 | 12.0 | 0.00 | 0.44 | 0.00 | 95 | 1008.8 |
| 20260510075704 | 52 | 169 | 5.0 | 14.0 | 0.00 | 0.44 | 0.00 | 95 | 1009.1 |
| 20260510075205 | 52 | 185 | 7.0 | 14.0 | 0.00 | 0.44 | 0.00 | 95 | 1009.4 |
| 20260510074704 | 52 | 197 | 6.0 | 17.0 | 0.00 | 0.44 | 0.00 | 96 | 1009.5 |
| 20260510074204 | 52 | 192 | 5.0 | 12.0 | 0.00 | 0.44 | 0.00 | 96 | 1009.5 |
| 20260510073704 | 52 | 189 | 5.0 | 13.0 | 0.00 | 0.44 | 0.00 | 95 | 1009.7 |
| 20260510073205 | 52 | 204 | 6.0 | 14.0 | 0.00 | 0.44 | 0.00 | 95 | 1009.8 |
| 20260510072705 | 52 | 205 | 3.0 | 14.0 | 0.00 | 0.44 | 0.00 | 95 | 1009.9 |
| 20260510071704 | 52 | 220 | 2.0 | 7.0 | 0.00 | 0.44 | 0.00 | 95 | 1010.2 |
| 20260510071204 | 52 | 193 | 4.0 | 8.0 | 0.00 | 0.44 | 0.00 | 96 | 1010.2 |
| 20260510070704 | 52 | 209 | 3.0 | 8.0 | 0.00 | 0.44 | 0.00 | 96 | 1010.2 |
| 20260510070205 | 52 | 212 | 5.0 | 9.0 | 0.00 | 0.44 | 0.00 | 96 | 1010.2 |
| 20260510065205 | 52 | 229 | 5.0 | 9.0 | 0.00 | 0.44 | 0.00 | 96 | 1010.2 |
| 20260510064704 | 52 | 220 | 2.0 | 5.0 | 0.00 | 0.44 | 0.00 | 96 | 1010.3 |
| 20260510064204 | 52 | 236 | 3.0 | 6.0 | 0.00 | 0.44 | 0.00 | 96 | 1010.3 |
| 20260510063704 | 52 | 240 | 3.0 | 7.0 | 0.00 | 0.44 | 0.00 | 96 | 1010.1 |
| 20260510063205 | 52 | 239 | 4.0 | 6.0 | 0.00 | 0.44 | 0.00 | 96 | 1010.1 |
| 20260510062705 | 52 | 277 | 1.0 | 5.0 | 0.00 | 0.44 | 0.00 | 96 | 1009.9 |
| 20260510062205 | 52 | 210 | 3.0 | 6.0 | 0.00 | 0.44 | 0.00 | 95 | 1009.6 |
| 20260510061704 | 52 | 214 | 2.0 | 6.0 | 0.00 | 0.44 | 0.00 | 95 | 1009.7 |
| 20260510061205 | 52 | 206 | 3.0 | 6.0 | 0.00 | 0.44 | 0.00 | 96 | 1009.6 |
| 20260510060704 | 52 | 195 | 2.0 | 8.0 | 0.00 | 0.44 | 0.00 | 96 | 1009.6 |
| 20260510060204 | 52 | 146 | 2.0 | 8.0 | 0.00 | 0.44 | 0.00 | 96 | 1009.5 |
| 20260510055704 | 51 | 186 | 7.0 | 12.0 | 0.00 | 0.44 | 0.00 | 96 | 1009.5 |
| 20260510055204 | 51 | 174 | 2.0 | 6.0 | 0.00 | 0.44 | 0.00 | 96 | 1009.5 |
| 20260510054704 | 52 | 148 | 4.0 | 9.0 | 0.00 | 0.44 | 0.00 | 96 | 1009.5 |
| 20260510054205 | 52 | 179 | 3.0 | 8.0 | 0.00 | 0.44 | 0.00 | 96 | 1009.6 |
| 20260510053704 | 52 | 181 | 6.0 | 14.0 | 0.00 | 0.44 | 0.00 | 96 | 1009.6 |
| 20260510053204 | 52 | 216 | 4.0 | 9.0 | 0.00 | 0.44 | 0.00 | 96 | 1009.6 |
| 20260510052204 | 52 | 195 | 5.0 | 13.0 | 0.00 | 0.44 | 0.00 | 95 | 1009.6 |
| 20260510051704 | 52 | 186 | 3.0 | 12.0 | 0.00 | 0.44 | 0.00 | 95 | 1009.5 |
| 20260510051204 | 52 | 193 | 6.0 | 12.0 | 0.00 | 0.44 | 0.00 | 96 | 1009.5 |
| 20260510050704 | 52 | 146 | 4.0 | 8.0 | 0.00 | 0.44 | 0.00 | 96 | 1009.5 |
| 20260510050205 | 52 | 212 | 3.0 | 9.0 | 0.00 | 0.44 | 0.00 | 96 | 1009.6 |
| 20260510045704 | 52 | 216 | 5.0 | 10.0 | 0.00 | 0.44 | 0.00 | 96 | 1009.6 |
| 20260510045204 | 52 | 210 | 2.0 | 6.0 | 0.00 | 0.44 | 0.00 | 96 | 1009.7 |
| 20260510044704 | 52 | 179 | 5.0 | 10.0 | 0.00 | 0.44 | 0.00 | 96 | 1009.7 |
| 20260510044204 | 52 | 204 | 3.0 | 7.0 | 0.00 | 0.44 | 0.00 | 96 | 1009.7 |
| 20260510043704 | 52 | 196 | 6.0 | 13.0 | 0.00 | 0.44 | 0.00 | 95 | 1009.7 |
| 20260510043204 | 52 | 227 | 4.0 | 10.0 | 0.00 | 0.44 | 0.00 | 95 | 1009.8 |
| 20260510042704 | 52 | 185 | 3.0 | 8.0 | 0.00 | 0.44 | 0.00 | 95 | 1009.7 |
| 20260510042204 | 52 | 203 | 5.0 | 12.0 | 0.00 | 0.44 | 0.00 | 95 | 1009.6 |
| 20260510041704 | 53 | 175 | 5.0 | 12.0 | 0.00 | 0.44 | 0.00 | 95 | 1009.7 |
| 20260510041204 | 53 | 192 | 5.0 | 12.0 | 0.00 | 0.44 | 0.00 | 95 | 1009.8 |
| 20260510040204 | 53 | 223 | 6.0 | 9.0 | 0.00 | 0.44 | 0.00 | 95 | 1009.7 |
| 20260510035704 | 53 | 198 | 4.0 | 14.0 | 0.00 | 0.44 | 0.44 | 95 | 1009.7 |
| 20260510035204 | 53 | 192 | 5.0 | 14.0 | 0.00 | 0.44 | 0.44 | 95 | 1009.6 |
| 20260510034704 | 53 | 192 | 3.0 | 12.0 | 0.00 | 0.44 | 0.44 | 95 | 1009.6 |
| 20260510034204 | 52 | 180 | 4.0 | 9.0 | 0.00 | 0.44 | 0.44 | 95 | 1009.5 |
| 20260510032205 | 52 | 175 | 4.0 | 8.0 | 0.00 | 0.44 | 0.44 | 95 | 1009.4 |
| 20260510031704 | 52 | 204 | 4.0 | 8.0 | 0.00 | 0.44 | 0.44 | 95 | 1009.4 |
| 20260510031204 | 52 | 193 | 5.0 | 12.0 | 0.00 | 0.44 | 0.44 | 95 | 1009.4 |
| 20260510030705 | 53 | 161 | 4.0 | 10.0 | 0.00 | 0.44 | 0.44 | 95 | 1009.4 |
| 20260510024204 | 53 | 159 | 2.0 | 6.0 | 0.00 | 0.44 | 0.44 | 95 | 1009.7 |
| 20260510023704 | 53 | 174 | 4.0 | 7.0 | 0.00 | 0.44 | 0.44 | 95 | 1009.7 |
| 20260510023204 | 52 | 193 | 5.0 | 8.0 | 0.00 | 0.44 | 0.44 | 95 | 1009.7 |
| 20260510022704 | 52 | 184 | 4.0 | 9.0 | 0.00 | 0.44 | 0.44 | 95 | 1009.7 |
| 20260510021704 | 52 | 203 | 6.0 | 14.0 | 0.00 | 0.44 | 0.44 | 95 | 1009.9 |
| 20260510021204 | 52 | 205 | 4.0 | 10.0 | 0.00 | 0.44 | 0.44 | 96 | 1009.8 |
| 20260510020705 | 52 | 194 | 4.0 | 12.0 | 0.00 | 0.44 | 0.44 | 96 | 1009.7 |
| 20260510020203 | 52 | 188 | 5.0 | 8.0 | 0.00 | 0.44 | 0.44 | 95 | 1009.8 |
| 20260510015704 | 52 | 184 | 3.0 | 9.0 | 0.00 | 0.44 | 0.44 | 96 | 1009.9 |
| 20260510015204 | 52 | 193 | 3.0 | 9.0 | 0.00 | 0.44 | 0.44 | 96 | 1009.7 |
| 20260510014704 | 52 | 170 | 4.0 | 8.0 | 0.00 | 0.44 | 0.44 | 96 | 1009.7 |
| 20260510013704 | 52 | 149 | 2.0 | 9.0 | 0.00 | 0.44 | 0.44 | 96 | 1009.7 |
| 20260510013204 | 52 | 146 | 4.0 | 12.0 | 0.00 | 0.44 | 0.44 | 96 | 1009.7 |
| 20260510012704 | 52 | 182 | 2.0 | 7.0 | 0.00 | 0.44 | 0.44 | 96 | 1009.8 |
| 20260510012204 | 52 | 178 | 3.0 | 8.0 | 0.00 | 0.44 | 0.44 | 95 | 1009.8 |
| 20260510011704 | 52 | 168 | 3.0 | 9.0 | 0.00 | 0.44 | 0.44 | 95 | 1009.8 |
| 20260510011204 | 52 | 160 | 3.0 | 7.0 | 0.00 | 0.44 | 0.44 | 95 | 1009.9 |
| 20260510010704 | 52 | 167 | 2.0 | 9.0 | 0.00 | 0.44 | 0.44 | 95 | 1009.8 |
| 20260510010204 | 52 | 158 | 2.0 | 7.0 | 0.00 | 0.44 | 0.44 | 95 | 1009.8 |
| 20260510005704 | 52 | 162 | 1.0 | 6.0 | 0.00 | 0.44 | 0.44 | 95 | 1009.8 |
| 20260510005204 | 52 | 173 | 2.0 | 6.0 | 0.00 | 0.44 | 0.44 | 95 | 1009.7 |
| 20260510004204 | 52 | 225 | 1.0 | 8.0 | 0.00 | 0.44 | 0.44 | 95 | 1009.9 |
| 20260510003704 | 52 | 204 | 3.0 | 6.0 | 0.00 | 0.44 | 0.44 | 95 | 1009.8 |
| 20260510003204 | 52 | 207 | 2.0 | 5.0 | 0.00 | 0.44 | 0.44 | 96 | 1009.6 |
| 20260510002704 | 52 | 183 | 2.0 | 6.0 | 0.00 | 0.44 | 0.44 | 96 | 1009.5 |
| 20260510002204 | 52 | 190 | 1.0 | 5.0 | 0.00 | 0.44 | 0.44 | 96 | 1009.3 |
| 20260510001704 | 52 | 203 | 3.0 | 7.0 | 0.00 | 0.44 | 0.44 | 96 | 1009.2 |
| 20260510001205 | 52 | 205 | 3.0 | 7.0 | 0.00 | 0.44 | 0.44 | 95 | 1009.1 |
| 20260510000703 | 52 | 192 | 3.0 | 8.0 | 0.00 | 0.44 | 0.44 | 96 | 1009.0 |
| 20260510000204 | 52 | 194 | 2.0 | 6.0 | 0.00 | 0.44 | 0.44 | 96 | 1009.0 |
| 20260509235704 | 52 | 208 | 3.0 | 8.0 | 0.00 | 0.44 | 0.44 | 96 | 1008.9 |
| 20260509235204 | 53 | 200 | 5.0 | 12.0 | 0.00 | 0.44 | 0.44 | 95 | 1008.8 |
| 20260509234204 | 53 | 211 | 5.0 | 8.0 | 0.00 | 0.44 | 0.44 | 96 | 1008.8 |
| 20260509233704 | 53 | 185 | 3.0 | 12.0 | 0.00 | 0.44 | 0.44 | 96 | 1008.6 |
| 20260509233204 | 53 | 156 | 2.0 | 6.0 | 0.00 | 0.44 | 0.44 | 96 | 1008.5 |
| 20260509232704 | 53 | 194 | 4.0 | 9.0 | 0.00 | 0.44 | 0.44 | 95 | 1008.5 |
| 20260509232204 | 53 | 189 | 4.0 | 9.0 | 0.00 | 0.44 | 0.44 | 95 | 1008.3 |
| 20260509231703 | 53 | 173 | 5.0 | 8.0 | 0.00 | 0.44 | 0.44 | 95 | 1008.4 |
| 20260509231204 | 54 | 192 | 3.0 | 9.0 | 0.00 | 0.44 | 0.44 | 95 | 1008.5 |